Location: Godiavel Galaoual
(15.2485°N, 12.6604°W)
Time: 02:31:54
(UTC+00:00)

BEESAT - Visible Passes

Search period start: 26 July 2021 00:00
Search period end: 05 August 2021 00:00
Orbit: 700 x 708 km, 98.6° (Epoch: 25 July)

Date Brightness Start Highest point End Pass type
(mag) Time Alt. Az. Time Alt. Az. Time Alt. Az.
26 Jul ? 20:19:52 10° N 20:24:29 50° WNW 20:29:05 10° SSW visible
27 Jul ? 21:04:53 10° NW 21:07:28 15° WNW 21:10:03 10° WSW visible
28 Jul ? 20:08:31 10° N 20:13:16 71° WNW 20:18:01 10° SSW visible
29 Jul ? 20:52:49 10° NNW 20:56:18 20° WNW 20:59:47 10° WSW visible
30 Jul ? 19:57:15 10° NNE 20:02:03 82° ESE 20:06:49 10° S visible
31 Jul ? 20:41:04 10° NNW 20:45:07 28° WNW 20:49:10 10° SW visible
01 Aug ? 19:46:06 10° NNE 19:50:48 58° ESE 19:55:29 10° S visible
02 Aug ? 20:29:29 10° N 20:33:55 39° WNW 20:38:20 10° SW visible
03 Aug ? 19:35:04 10° NNE 19:39:33 40° E 19:44:01 10° S visible
03 Aug ? 21:15:23 10° NW 21:16:52 11° WNW 21:18:21 10° W visible
04 Aug ? 20:18:02 10° N 20:22:42 55° WNW 20:27:21 10° SSW visible
